Weather History for Fort Huachuca, AZ

Change the Weather History Date:

Sunday, December 16, 2012

  Actual Average (KFHU) Record (KFHU)
Temperature  
Mean Temperature 40 °F -  
Max Temperature 48 °F 57 °F 69 °F (1983)
Min Temperature 32 °F 35 °F 25 °F (1984)
Degree Days  
Heating Degree Days 25    
Moisture  
Dew Point 34 °F    
Average Humidity 77    
Maximum Humidity 93    
Minimum Humidity 50    
Precipitation  
Precipitation 0.00 in - - ()
Sea Level Pressure  
Sea Level Pressure 30.01 in    
Wind  
Wind Speed 12 mph (WSW)    
Max Wind Speed 23 mph    
Max Gust Speed 28 mph    
Averages and records for this station are not official NWS values.
T = Trace of Precipitation, MM = Missing Value Source: NWS Daily Summary

Daily Weather History Graph

Daily Weather History Graph

Search for Another Location

Airport:

Trip Planner

Search our weather history database for the weather conditions in past years. The results will help you decide how hot, cold, wet, or windy it might be!

Date:

Astronomy

Dec. 16, 2012 Rise Set
Actual Time 7:14 AM MST 5:20 PM MST
Civil Twilight 6:47 AM MST 5:47 PM MST
Nautical Twilight 6:17 AM MST 6:17 PM MST
Astronomical Twilight 5:47 AM MST 6:47 PM MST
Moon 10:01 AM MST (12/16) 9:26 PM MST (12/16)
Length of Visible Light 10h 59m
Length of Day
10h 05m
Waxing Crescent, 16% of the Moon is Illuminated
Dec 16
Waxing Crescent
Dec 19
First Quarter
Dec 28
Full
Jan 4
Last Quarter
Jan 11
New

Hourly Weather History & Observations

Time (MST) Temp. Windchill Dew Point Humidity Pressure Visibility Wind Dir Wind Speed Gust Speed Precip Events Conditions
12:56 AM 39.9 °F 32.9 °F 35.1 °F 83% 29.93 in - WSW 11.5 mph - N/A   Partly Cloudy
1:56 AM 41.0 °F 34.3 °F 36.0 °F 82% 29.93 in - SW 11.5 mph 17.3 mph N/A   Overcast
2:56 AM 39.9 °F 32.5 °F 35.1 °F 83% 29.93 in - WSW 12.7 mph - N/A   Partly Cloudy
3:56 AM 41.0 °F 33.1 °F 35.1 °F 79% 29.92 in - WSW 15.0 mph - N/A   Scattered Clouds
4:56 AM 41.0 °F 32.2 °F 35.1 °F 79% 29.90 in - SW 18.4 mph - N/A   Mostly Cloudy
5:26 AM 41.0 °F 34.3 °F 33.8 °F 76% 30.02 in - SW 11.5 mph - N/A   Overcast
5:56 AM 41.0 °F 33.9 °F 35.1 °F 79% 29.92 in - WSW 12.7 mph - N/A   Overcast
6:56 AM 41.0 °F 33.1 °F 37.0 °F 86% 29.94 in - SW 15.0 mph 20.7 mph N/A Rain Light Rain
7:56 AM 41.0 °F 33.1 °F 37.0 °F 86% 29.96 in - WSW 15.0 mph - N/A Rain Light Rain
8:56 AM 41.0 °F 33.1 °F 37.9 °F 89% 29.99 in - WSW 15.0 mph - N/A Rain Light Rain
9:17 AM 39.2 °F 31.2 °F 37.4 °F 93% 30.12 in - WNW 13.8 mph - N/A Rain Light Rain
9:46 AM 39.2 °F 33.0 °F 37.4 °F 93% 30.13 in - West 9.2 mph - N/A Rain Light Rain
9:56 AM 39.0 °F 31.8 °F 37.0 °F 93% 30.03 in - West 11.5 mph - N/A Rain Light Rain
10:06 AM 39.2 °F 33.6 °F 37.4 °F 93% 30.13 in - West 8.1 mph - N/A Rain Light Rain
10:56 AM 44.1 °F 36.8 °F 37.9 °F 79% 30.01 in - WSW 16.1 mph - N/A   Scattered Clouds
11:56 AM 45.0 °F 37.6 °F 35.1 °F 68% 30.02 in - WSW 17.3 mph 24.2 mph N/A   Mostly Cloudy
12:56 PM 46.9 °F - 33.1 °F 59% 29.98 in - WSW 23.0 mph 27.6 mph N/A   Mostly Cloudy
1:56 PM 48.0 °F - 32.0 °F 54% 29.96 in - WSW 20.7 mph 26.5 mph N/A   Overcast
2:56 PM 46.9 °F - 32.0 °F 56% 29.97 in - West 13.8 mph 25.3 mph N/A   Mostly Cloudy
3:56 PM 48.0 °F - 30.0 °F 50% 29.97 in - West 13.8 mph 21.9 mph N/A   Clear
4:56 PM 45.0 °F 40.1 °F 32.0 °F 60% 30.00 in - WNW 9.2 mph - N/A   Clear
5:56 PM 39.9 °F 34.5 °F 32.0 °F 73% 30.03 in - West 8.1 mph - N/A   Clear
6:56 PM 37.9 °F 31.5 °F 30.9 °F 76% 30.04 in - SW 9.2 mph - N/A   Clear
7:56 PM 36.0 °F 28.5 °F 30.0 °F 79% 30.07 in - WSW 10.4 mph - N/A   Clear
8:56 PM 35.1 °F 31.0 °F 28.9 °F 78% 30.08 in - South 4.6 mph - N/A   Clear
9:56 PM 35.1 °F 31.0 °F 28.9 °F 78% 30.10 in - West 4.6 mph - N/A   Clear
10:56 PM 32.0 °F - 28.0 °F 85% 30.10 in - Calm Calm - N/A   Clear
11:56 PM 34.0 °F 28.0 °F 28.0 °F 79% 30.09 in - WSW 6.9 mph - N/A   Clear